FW4382 Weather Reports


Display with metric or nautical units.
time (UTC)temp
F
wind
direction
speed
MPH
gust
MPH
rain 1hr
in
rain 24hr
in
rain mn
in
humidity
%
barometer
mb
20260505120124 59 115 0.0 0.0 0.00 0.01 0.00 56 1012.5
20260505115623 59 115 0.0 0.0 0.00 0.01 0.00 56 1012.6
20260505115120 58 115 0.0 0.0 0.00 0.01 0.00 56 1012.5
20260505114622 58 147 0.0 0.0 0.00 0.01 0.00 56 1012.6
20260505114121 58 147 0.0 0.0 0.00 0.01 0.00 56 1012.6
20260505113621 58 147 0.0 0.0 0.00 0.01 0.00 56 1012.5
20260505113118 58 147 0.0 0.0 0.00 0.01 0.00 56 1012.6
20260505112618 58 147 0.0 0.0 0.00 0.01 0.00 56 1012.6
20260505112117 58 147 0.0 0.0 0.00 0.01 0.00 56 1012.6
20260505111617 58 147 0.0 0.0 0.00 0.01 0.00 55 1012.5
20260505111114 58 147 0.0 0.0 0.00 0.01 0.00 55 1012.4
20260505110613 58 147 0.0 0.0 0.00 0.01 0.00 55 1012.3
20260505110113 58 147 0.0 0.0 0.00 0.01 0.00 54 1012.3
20260505102109 59 147 0.0 0.0 0.00 0.05 0.00 52 1011.5
20260505101608 60 147 0.0 0.0 0.00 0.05 0.00 52 1011.5
20260505100609 60 147 0.0 0.0 0.00 0.05 0.00 52 1011.5
20260505100109 60 147 0.0 0.0 0.00 0.06 0.00 52 1011.5
20260505095608 60 147 0.0 0.0 0.00 0.06 0.00 52 1011.5
20260505095108 60 147 0.0 0.0 0.00 0.06 0.00 52 1011.3
20260505094609 60 147 0.0 0.0 0.00 0.06 0.00 52 1011.2
20260505094104 60 147 0.0 0.0 0.00 0.06 0.00 52 1011.1
20260505093104 61 147 0.0 2.0 0.00 0.06 0.00 51 1011.0
20260505092604 61 147 0.0 2.0 0.00 0.06 0.00 51 1011.1
20260505092105 61 147 0.0 1.0 0.00 0.06 0.00 51 1011.2
20260505091604 61 147 0.0 1.0 0.00 0.06 0.00 51 1011.1
20260505091105 61 147 0.0 3.0 0.00 0.06 0.00 51 1011.1
20260505090604 61 147 0.0 3.0 0.00 0.06 0.00 51 1011.0
20260505090105 61 147 0.0 2.0 0.00 0.06 0.00 51 1011.0
20260505085605 61 147 0.0 2.0 0.00 0.06 0.00 50 1011.0
20260505085105 62 203 0.0 0.0 0.00 0.06 0.00 50 1010.9
20260505084105 62 203 0.0 1.0 0.00 0.06 0.00 50 1010.8
20260505083104 62 304 1.0 4.0 0.00 0.06 0.00 50 1010.7
20260505082604 62 109 0.0 2.0 0.00 0.06 0.00 50 1010.6
20260505082105 62 105 0.0 2.0 0.00 0.06 0.00 50 1010.5
20260505081605 62 105 0.0 4.0 0.00 0.06 0.00 50 1010.5
20260505080602 62 156 0.0 0.0 0.00 0.06 0.00 49 1010.7
20260505080103 62 156 0.0 1.0 0.00 0.06 0.00 49 1010.6
20260505075602 62 156 0.0 2.0 0.00 0.06 0.00 49 1010.6
20260505075102 62 156 0.0 4.0 0.00 0.06 0.00 49 1010.6
20260505074602 63 162 0.0 4.0 0.00 0.06 0.00 49 1010.6
20260505074102 63 128 0.0 0.0 0.00 0.06 0.00 49 1010.5
20260505073602 63 127 0.0 3.0 0.00 0.06 0.00 49 1010.5
20260505073108 63 150 1.0 3.0 0.00 0.06 0.00 49 1010.5
20260505072603 63 163 1.0 4.0 0.00 0.06 0.00 49 1010.5
20260505072102 63 163 1.0 4.0 0.00 0.06 0.00 49 1010.5
20260505071605 63 36 1.0 4.0 0.00 0.06 0.00 49 1010.5
20260505071106 63 36 1.0 4.0 0.00 0.06 0.00 49 1010.6
20260505070056 63 147 0.0 2.0 0.00 0.06 0.00 49 1010.5
20260505065552 63 147 0.0 0.0 0.00 0.06 0.00 49 1010.6
20260505064046 63 147 0.0 2.0 0.00 0.06 0.00 49 1010.6
20260505063544 63 148 1.0 3.0 0.00 0.06 0.00 49 1010.6
20260505062545 63 148 0.0 2.0 0.00 0.06 0.00 49 1010.7
20260505062044 63 148 0.0 3.0 0.00 0.06 0.00 49 1010.6
20260505061542 63 148 0.0 3.0 0.00 0.06 0.00 49 1010.7
20260505061041 63 149 0.0 3.0 0.00 0.06 0.00 49 1010.7
20260505060547 63 141 1.0 3.0 0.00 0.06 0.00 49 1010.6
20260505055541 63 159 0.0 2.0 0.00 0.06 0.00 49 1010.7
20260505055034 63 159 0.0 2.0 0.00 0.06 0.00 49 1010.7
20260505054536 63 159 0.0 1.0 0.00 0.06 0.00 49 1010.8
20260505054033 63 159 0.0 2.0 0.00 0.06 0.00 49 1010.9
20260505053531 63 159 0.0 2.0 0.00 0.06 0.00 49 1010.9
20260505053029 63 159 0.0 2.0 0.00 0.06 0.00 49 1011.0
20260505052530 63 160 0.0 2.0 0.00 0.06 0.00 49 1011.0
20260505052028 63 161 0.0 2.0 0.00 0.06 0.00 49 1011.0
20260505051525 64 161 0.0 1.0 0.00 0.06 0.00 49 1011.0
20260505051024 64 161 0.0 1.0 0.00 0.06 0.00 49 1011.0
20260505050524 64 161 0.0 1.0 0.00 0.06 0.00 48 1011.0
20260505041510 64 161 0.0 0.0 0.00 0.06 0.00 47 1010.8
20260505041008 65 161 0.0 0.0 0.00 0.06 0.00 47 1010.8
20260505040508 65 161 0.0 0.0 0.00 0.06 0.00 47 1010.7
20260505040007 65 161 0.0 0.0 0.00 0.06 0.00 46 1010.6
20260505034501 65 161 0.0 1.0 0.00 0.06 0.06 46 1010.5
20260505034001 65 161 0.0 1.0 0.00 0.06 0.06 46 1010.4
20260505033501 65 161 0.0 1.0 0.00 0.06 0.06 46 1010.4
20260505033000 65 161 0.0 1.0 0.00 0.06 0.06 46 1010.4
20260505032459 66 161 0.0 1.0 0.00 0.06 0.06 46 1010.4
20260505031958 66 161 0.0 2.0 0.00 0.06 0.06 45 1010.3
20260505031500 66 161 0.0 2.0 0.00 0.06 0.06 45 1010.2
20260505030955 66 161 0.0 1.0 0.00 0.06 0.06 45 1010.3
20260505030452 66 161 0.0 1.0 0.00 0.06 0.06 45 1010.3
20260505025950 67 161 0.0 1.0 0.00 0.06 0.06 45 1010.2
20260505025447 67 161 0.0 1.0 0.00 0.06 0.06 45 1010.0
20260505024945 67 161 0.0 1.0 0.00 0.06 0.06 45 1009.9
20260505023941 67 161 0.0 1.0 0.00 0.06 0.06 44 1009.7
20260505023443 67 161 0.0 1.0 0.00 0.06 0.06 44 1009.6
20260505022935 67 161 0.0 2.0 0.00 0.06 0.06 44 1009.6
20260505022433 68 161 0.0 2.0 0.00 0.06 0.06 44 1009.5
20260505021930 68 161 0.0 1.0 0.00 0.06 0.06 43 1009.4
20260505021428 68 161 0.0 1.0 0.00 0.06 0.06 43 1009.5
20260505020935 69 161 0.0 0.0 0.00 0.06 0.06 43 1009.4
20260505015919 69 161 0.0 1.0 0.00 0.06 0.06 42 1009.4
20260505015416 69 161 0.0 1.0 0.00 0.06 0.06 42 1009.3
20260505014919 69 161 0.0 1.0 0.00 0.06 0.06 42 1009.2
20260505014414 69 161 0.0 1.0 0.00 0.06 0.06 42 1009.2
20260505013412 70 161 0.0 2.0 0.00 0.06 0.06 41 1009.1
20260505012911 70 161 0.0 1.0 0.00 0.06 0.06 41 1009.0
20260505012409 70 161 0.0 1.0 0.00 0.06 0.06 40 1009.1
20260505011909 70 161 0.0 2.0 0.00 0.06 0.06 40 1009.1
20260505010909 71 161 0.0 1.0 0.00 0.06 0.06 40 1009.0
20260505010408 71 161 0.0 4.0 0.00 0.06 0.06 39 1009.0
20260505005907 71 161 0.0 4.0 0.00 0.06 0.06 39 1009.0
20260505005407 71 187 0.0 1.0 0.00 0.06 0.06 38 1008.9
20260505004905 71 187 0.0 2.0 0.00 0.06 0.06 38 1008.8
20260505004403 72 187 0.0 2.0 0.00 0.06 0.06 38 1008.8
20260505003903 72 187 0.0 1.0 0.00 0.06 0.06 38 1008.7
20260505003407 72 187 0.0 2.0 0.00 0.06 0.06 38 1008.9
20260505002901 72 187 0.0 2.0 0.00 0.06 0.06 36 1008.9
20260505002402 73 205 0.0 1.0 0.00 0.06 0.06 36 1008.9
20260505001857 73 205 0.0 1.0 0.00 0.06 0.06 36 1008.9
20260505001351 73 205 0.0 1.0 0.00 0.06 0.06 36 1009.1
20260505000339 74 206 0.0 2.0 0.00 0.06 0.06 35 1009.3
20260504235339 74 226 0.0 3.0 0.00 0.06 0.06 35 1009.4
20260504234837 74 234 0.0 3.0 0.00 0.06 0.06 35 1009.5
20260504234335 74 161 0.0 2.0 0.00 0.06 0.06 34 1009.7
20260504233834 75 160 1.0 4.0 0.00 0.06 0.06 33 1009.7
20260504232332 75 118 1.0 4.0 0.00 0.06 0.06 33 1010.0
20260504231331 76 119 1.0 4.0 0.00 0.06 0.06 33 1010.0
20260504230838 76 213 1.0 3.0 0.00 0.06 0.06 33 1010.0
20260504230335 76 256 1.0 4.0 0.00 0.06 0.06 33 1010.2
20260504225836 76 230 1.0 4.0 0.00 0.06 0.06 32 1010.3
20260504225335 76 216 1.0 3.0 0.00 0.06 0.06 32 1010.3
20260504224834 76 255 1.0 3.0 0.00 0.06 0.06 32 1010.2
20260504224329 76 253 1.0 3.0 0.00 0.06 0.06 31 1010.3
20260504223829 76 202 1.0 3.0 0.00 0.06 0.06 31 1010.3
20260504223329 76 159 1.0 4.0 0.00 0.06 0.06 31 1010.2
20260504222825 77 209 1.0 4.0 0.00 0.06 0.06 31 1010.2
20260504222318 77 207 0.0 3.0 0.00 0.06 0.06 33 1010.3
20260504221813 77 227 1.0 4.0 0.00 0.06 0.06 34 1010.3
20260504221307 77 242 1.0 4.0 0.00 0.06 0.06 33 1010.2
20260504220806 77 340 1.0 4.0 0.00 0.06 0.06 32 1010.3
20260504220305 77 240 1.0 4.0 0.00 0.06 0.06 33 1010.3
20260504215306 77 216 1.0 5.0 0.00 0.06 0.06 33 1010.3
20260504214806 77 204 1.0 4.0 0.00 0.06 0.06 33 1010.2
20260504214306 77 198 1.0 2.0 0.00 0.06 0.06 33 1010.0
20260504213804 77 207 1.0 4.0 0.00 0.06 0.06 33 1010.2
20260504213303 77 207 1.0 4.0 0.00 0.06 0.06 31 1010.3
20260504212803 77 209 1.0 3.0 0.00 0.06 0.06 32 1010.3
20260504212308 77 248 1.0 5.0 0.00 0.06 0.06 34 1010.2
20260504211301 78 149 1.0 6.0 0.00 0.06 0.06 32 1010.3
20260504210800 78 223 1.0 6.0 0.00 0.06 0.06 32 1010.3
20260504205301 78 232 1.0 4.0 0.00 0.06 0.06 34 1010.4
20260504204800 78 232 1.0 4.0 0.00 0.06 0.06 32 1010.4
20260504204301 78 175 1.0 4.0 0.00 0.06 0.06 33 1010.4
20260504203755 78 92 1.0 4.0 0.00 0.06 0.06 32 1010.4
20260504201745 79 256 1.0 4.0 0.00 0.06 0.06 32 1010.5
20260504201250 79 144 1.0 3.0 0.00 0.06 0.06 31 1010.6
20260504200748 79 157 1.0 4.0 0.00 0.06 0.06 33 1010.8
20260504195739 78 162 1.0 3.0 0.00 0.06 0.06 33 1011.0
20260504195239 78 234 1.0 3.0 0.00 0.06 0.06 32 1011.1
20260504194739 78 159 1.0 4.0 0.00 0.06 0.06 33 1011.2
20260504194239 78 180 2.0 4.0 0.00 0.06 0.06 32 1011.3
20260504193737 78 200 1.0 4.0 0.00 0.06 0.06 33 1011.3
20260504193234 77 229 1.0 4.0 0.00 0.06 0.06 34 1011.4
20260504192732 77 132 1.0 5.0 0.00 0.06 0.06 36 1011.4
20260504192233 77 225 2.0 5.0 0.00 0.06 0.06 35 1011.5
20260504191733 76 166 1.0 5.0 0.00 0.06 0.06 36 1011.6
20260504191230 76 182 1.0 5.0 0.00 0.06 0.06 36 1011.7
20260504190729 76 236 1.0 4.0 0.00 0.06 0.06 37 1011.7
20260504190230 76 209 1.0 3.0 0.00 0.06 0.06 36 1011.7
20260504185729 76 209 1.0 5.0 0.00 0.06 0.06 37 1011.7
20260504185233 76 194 1.0 5.0 0.00 0.06 0.06 36 1011.7
20260504184729 76 226 1.0 4.0 0.00 0.06 0.06 37 1011.7
20260504184223 76 237 1.0 3.0 0.00 0.06 0.06 36 1011.7
20260504183718 76 158 1.0 7.0 0.00 0.06 0.06 37 1011.7
20260504182706 76 211 2.0 8.0 0.00 0.06 0.06 36 1011.7
20260504182205 76 167 2.0 8.0 0.00 0.06 0.06 35 1011.7
20260504181705 77 188 2.0 4.0 0.00 0.06 0.06 35 1011.7
20260504181205 77 215 2.0 5.0 0.00 0.06 0.06 34 1011.7
20260504180703 77 160 2.0 5.0 0.00 0.06 0.06 36 1011.7
20260504180209 77 188 2.0 4.0 0.00 0.06 0.06 35 1011.6
20260504175708 77 187 2.0 5.0 0.00 0.06 0.06 37 1011.6
20260504175208 76 215 2.0 5.0 0.00 0.06 0.06 36 1011.6
20260504174707 76 141 2.0 5.0 0.00 0.06 0.06 35 1011.6
20260504174208 76 202 1.0 5.0 0.00 0.06 0.06 35 1011.6
20260504173707 76 145 1.0 7.0 0.00 0.06 0.06 38 1011.5
20260504173204 76 211 2.0 7.0 0.00 0.06 0.06 36 1011.6
20260504172701 76 157 2.0 9.0 0.00 0.06 0.06 39 1011.6
20260504172201 75 186 2.0 9.0 0.00 0.06 0.06 37 1011.6
20260504171201 75 174 2.0 7.0 0.00 0.06 0.06 38 1011.6
20260504170701 75 196 2.0 5.0 0.00 0.06 0.06 39 1011.8
20260504170200 74 157 2.0 7.0 0.00 0.06 0.06 39 1011.9
20260504150701 62 78 2.0 5.0 0.00 0.06 0.06 51 1013.0
20260504150201 62 100 2.0 6.0 0.00 0.06 0.06 52 1013.2
20260504141202 55 154 0.0 2.0 0.01 0.06 0.06 56 1013.9
20260504140701 55 153 0.0 2.0 0.01 0.06 0.06 56 1014.1
20260504140202 54 155 0.0 1.0 0.01 0.06 0.06 56 1014.5
20260504130655 53 235 1.0 3.0 0.00 0.05 0.05 55 1014.5
20260504130155 53 40 1.0 3.0 0.00 0.05 0.05 56 1014.3